Sacramento International Airport
KSMF : now visible

Airfield :











YOU CAN JOIN US ON...

 
LOGIN :

Register | Disclaimer

   EN    FR    IT 

 









Legend :    VFR   Marginal VFR   IFR   Intensive IFR   Very Intensive IFR
Visi :
Ceiling :
>= 8 km
>= 3000ft
5 to 8 km
1000 to 3000 ft
1500m to 5 km
500 to 1000 ft
800 to 1500m
200 to 500 ft
< 800m
< 200 ft
Symbols :   Thunderstorms  Fog  Heavy snow  Heavy precipitations  Wind > 20 kt






- Airport Elevation : 27 ft
- IATA code : SMF


KSMF - Sacramento International

CURRENT METAR :
  • 180553Z 00000KT 10SM CLR 12/08 A2999 RMK AO2 SLP153 T01170078 10222 20111 56006

EXPIRED METARs :
  • 180453Z 19005KT 10SM CLR 14/08 A2999 RMK AO2 SLP156 T01390083
  • 180353Z 19005KT 10SM CLR 13/08 A2999 RMK AO2 SLP156 T01330083

TAF KSMF
Valid from the 18 at 06:00 until the 19 at 06:00 UTC


180533Z 1806/1906 19005KT P6SM SKC
FM181300 34017G24KT P6SM SKC
FM182200 34024G31KT P6SM SKC
KZOA FIR / North America



MET'MAP, your aeronautical weather chart ! - Copyright ORBIFLY December 2007 - Disclaimer

ORBIFLY MET'MAP TEAM :

Programming & Development : Alexandra Zaïnal
Concept & original design : Baudouin d'Aumeries
Assistance for programming : Marc-Olivier Méhu
Technical & hardware support : Manuel Goepfert

Contact : metmap@orbifly.com




SOURCES & CREDITS :

   NOAA       Earth
Advisory